Zurück zum Katalog

FENGYUN 1C DEB

AktivSSO
NORAD 30393·DEBRIS·🇨🇳 China

Gestartet May 10, 1999 von Taiyuan Satellite Launch Center

Loading…

Nächste Überflüge (nächste 24 Stunden)

TLE

AktuellSource: Space-Track

Epoche: Sep 13, 2026, 10:31 UTC

1 30393U 99025ADG 26256.43854747 -.00000081  00000-0 -24497-4 0  9997
2 30393  99.1269 318.6331 0070738 224.8897 147.5028 13.99071699  1660

Verfolge FENGYUN 1C DEB in Echtzeit mit AllMySat

Download on the App Store